Regional Weather Roundup
Issued by NWS Sterling, VA

Home | Current Version | Previous Version | Graphics & Text | Print | Product List | Glossary On
Versions: 1 2 3 4 5 6 7 8 9 10 11 12 13 14 15 16 17 18 19 20 21 22 23 24 25 26 27 28 29 30 31 32 33 34 35 36 37 38 39 40 41 42 43 44 45 46 47 48 49 50
000
ASUS41 KLWX 282010
RWRLWX

REGIONAL WEATHER ROUNDUP
NATIONAL WEATHER SERVICE BALTIMORE MD/WASHINGTON DC
400 PM EDT THU MAY 28 2015

Note: "FAIR" indicates few or no clouds below 12,000 feet
with no significant weather and/or obstructions to visibility.
 TC=TEMPERATURE CELSIUS

 * =Non NWS site. Station does not report precipitation (e.g. rain,
    snow, etc.), thunder, or fog.

DCZ001-MDZ009-015-VAZ040>042-051-053>054-282100-
WASHINGTON METRO

CITY           SKY/WX    TMP DP  RH WIND       PRES   REMARKS
WASHINGTON NAT NOT AVBL
DULLES         PTSUNNY   87  61  41 N3        30.16F
FT BELVOIR     PTSUNNY   88  67  49 VRB5      30.15F HX  90
QUANTICO       PTSUNNY   81  68  64 SW8       30.17F
COLLEGE PARK*  PTSUNNY   88  61  40 N5        30.14F
LEESBURG*      PTSUNNY   88  66  48 N9        30.18S HX  90
MANASSAS*      PTSUNNY   88  63  42 VRB5      30.16F
GAITHERSBURG*  PTSUNNY   84  66  54 NW7       30.20F

$$

MDZ006>007-011-014-282100-
BALTIMORE METRO

CITY           SKY/WX    TMP DP  RH WIND       PRES   REMARKS
BWI AIRPORT    PTSUNNY   88  63  43 VRB5      30.14F
MD SCIENCE CTR   N/A     89  62  40 MISG      30.14F
MARTIN STATE   TSTM      81  73  78 SE5       30.18R
ANNAPOLIS      PTSUNNY   80  69  69 SE12      30.15F
FORT MEADE*    PTSUNNY   86  63  45 W3        30.17F

$$

MDZ012-015-019>023-282100-
MARYLAND EASTERN SHORE

CITY           SKY/WX    TMP DP  RH WIND       PRES   REMARKS
OCEAN CITY     PTSUNNY   71  64  78 S10       30.19F
SALISBURY      PTSUNNY   84  69  60 S13       30.17F
BAY BRIDGE AP*   N/A    N/A N/A N/A SE9       30.16S
CAMBRIDGE*     PTSUNNY   84  70  61 S9        30.16F

$$

MDZ017>025-282100-
SOUTHERN MARYLAND

CITY           SKY/WX    TMP DP  RH WIND       PRES   REMARKS
PATUXENT RIVER PTSUNNY   79  70  74 SE9       30.17F
ST INIGOES     PTSUNNY   83  71  67 SE6       30.16F
LEONARDTOWN*   PTSUNNY   81  68  65 CALM      30.18F

$$

MDZ003>005-282100-
NORTH CENTRAL MARYLAND

CITY           SKY/WX    TMP DP  RH WIND       PRES   REMARKS
FREDERICK*     MOSUNNY   90  66  45 NW8       30.19F HX  92
HAGERSTOWN APT MOSUNNY   86  60  41 VRB3      30.18F
WESTMINSTER*   PTSUNNY   86  63  45 NW5       30.19F

$$

MDZ501>502-282100-
WESTERN MARYLAND

CITY           SKY/WX    TMP DP  RH WIND       PRES   REMARKS
OAKLAND*       PTSUNNY   73  63  68 NW7       30.31S
CUMBERLAND*    PTSUNNY   84  55  37 NW3       30.22F

$$

VAZ025>031-282100-
SHENANDOAH VALLEY

CITY           SKY/WX    TMP DP  RH WIND       PRES   REMARKS
WINCHESTER*    PTSUNNY   86  52  30 CALM      30.18F
FRONT ROYAL*   FAIR      82  66  57 E3        30.17F
LURAY*         MOCLDY    88  61  40 CALM      30.18F
NEW MARKET*    MOCLDY    86  63  45 NW5       30.16F
STAUNTON*      CLOUDY    83  63  50 SE6       30.23S
WAYNESBORO*    FAIR      77  69  78 E7        30.23F

$$

WVZ021-048>050-054>055-282100-
EASTERN WEST VIRGINIA PANHANDLE

CITY           SKY/WX    TMP DP  RH WIND       PRES   REMARKS
MARTINSBURG    PTSUNNY   87  62  43 VRB3      30.19F
PETERSBURG*    PTSUNNY   85  58  40 NE5       30.19F

$$

VAZ036>039-050-282100-
CENTRAL FOOTHILLS

CITY           SKY/WX    TMP DP  RH WIND       PRES   REMARKS
CHARLOTTESVILL CLOUDY    84  65  52 S7        30.18F
CULPEPER*      CLOUDY    79  65  62 S7        30.18F
ORANGE*        PTSUNNY   79  64  61 CALM      30.21R
GORDONSVILLE*  FAIR      83  66  55 CALM      30.17F
WARRENTON*     FAIR      85  70  60 S8        30.17F

$$

VAZ055>057-282100-
NORTH AND CENTRAL PIEDMONT

CITY           SKY/WX    TMP DP  RH WIND       PRES   REMARKS
FREDERICKSBRG* PTSUNNY   89  62  39 E5        30.15F
STAFFORD*      PTSUNNY   85  64  48 S3        30.20F

$$

NCZ024-NYZ072-PAZ021-071-VAZ022-071-282100-
OTHER REGIONAL OBSERVATIONS

CITY           SKY/WX    TMP DP  RH WIND       PRES   REMARKS
NEW YORK CITY  PTSUNNY   81  66  60 VRB5      30.15S
PHILADELPHIA   CLOUDY    88  64  44 W12       30.14S
PITTSBURGH     MOSUNNY   80  56  43 VRB3      30.25F
ROANOKE        PTSUNNY   86  60  41 N10       30.21F
RICHMOND       CLOUDY    88  68  51 S8        30.16F HX  91
RALEIGH        PTSUNNY   84  69  60 VRB6      30.17F

$$

ANZ530>537-282100-
MARINE OBSERVATIONS

STATION/POSITION TIME  TEMP    WIND        PRES
                       AIR SEA DIR/SP/G
                 (UTC) (F)     (DEG/KT/KT) (MB)
THOMAS PT LIGHT  2000   73 74  200/ 11/ 12 1021.7F
BALT KEY BRIDGE  1900   79     120/ 12/ 12 1020.7F
COVE POINT       1900   72     190/  9/ 11 1022.7F
LEWISETTA        1900   76 74              1021.4F
SOLOMONS ISLAND  1900      70                N/A
PINEY POINT      1900          160/  7/  8   N/A

$$



USA.gov is the U.S. government's official web portal to all federal, state and local government web resources and services.